Location: Allen Fire Department Station 4
(33.1073°N, 96.6988°W)
Time: 23:30:30
(UTC+00:00)

Cosmos 1763 Rocket - Pass Details

Date: 01 July 2022
Orbit: 732 x 780 km, 74.0° (Epoch: 18 August)

Event Time Altitude Azimuth Distance (km) Brightness Sun altitude
Exits shadow 06:41:25 14° 70° (ENE) 2,000 5.8 -33.7°
Drops below altitude 10° 06:42:49 10° 56° (NE) 2,298 6.3 -33.7°
Sets 06:45:56 0° 37° (NE) 3,238 7.5 -33.7°
